Lid_Strength_Index
7 7 8 8 7 6 5 5 5 6 4 5 6 3 3 0 -0 -1 -1 -1 -2 -1 -1 -1 -1 -1 -1 -1 -1 -1 -1 -1
9 9 7 7 7 6 5 5 4 5 6 4 2 3 1 -0 -1 -0 -1 -1 -1 -1 -1 -1 -1 -1 -1 -1 -1 -1 -2 -2
9 9 8 7 7 7 6 6 5 5 6 5 2 1 0 0 -0 -0 -0 -1 -1 -1 -1 -1 -1 -1 -1 -1 -1 -1 -2 -2
10 9 8 7 7 7 7 5 5 5 6 5 1 1 1 -0 -0 -1 -0 -1 -2 -1 -1 -1 -1 -1 -1 -1 -1 -2 -2 -2
8 9 8 8 5 6 7 5 5 4 6 4 3 1 0 -0 -0 -1 -1 -1 -1 -2 -2 -1 -1 -1 -1 -1 -1 -1 -2 -2
7 7 7 6 5 4 5 5 3 3 5 5 2 1 0 0 0 -0 -0 -1 -1 -1 -1 -2 -2 -1 -1 -1 -2 -2 -2 -2
7 7 6 4 5 4 3 4 4 3 4 3 1 1 1 1 1 1 0 -0 -1 -1 -1 -2 -2 -1 -1 -1 -1 -2 -2 -1
5 5 5 5 5 4 4 5 5 4 3 2 2 2 2 2 2 1 1 0 -1 -1 -1 -1 -1 -2 -2 -2 -2 -2 -2 -2
5 5 4 5 4 5 4 6 4 4 4 3 2 2 2 2 2 1 1 0 -0 -1 -1 -1 -1 -1 -1 -1 -1 -2 -2 -2
5 5 5 5 4 5 4 4 3 3 3 3 3 3 2 2 2 1 1 0 -0 -1 -1 -1 -1 -1 -1 -1 -1 -1 -2 -2
5 4 4 4 5 5 4 3 5 4 3 3 3 2 2 1 1 1 1 0 -0 -1 -1 -1 -1 -1 -1 -1 -1 -1 -2 -2
5 4 4 5 5 5 4 2 4 3 3 3 3 2 2 2 1 1 1 0 -0 -0 -1 -1 -1 -1 -1 -1 -2 -1 -2 -2
5 5 5 4 6 6 3 3 3 3 2 3 3 2 2 2 1 1 0 -0 -0 -0 -1 -1 -1 -1 -1 -1 -1 -1 -1 -2
5 5 5 5 7 5 3 4 4 3 3 2 2 2 2 1 1 1 0 0 -0 -0 -1 -1 -1 -1 -1 -1 -1 -1 -1 -1
7 5 5 5 7 5 3 3 4 3 3 3 2 2 2 1 1 1 0 0 0 -0 -0 -0 -1 -1 -1 -1 -1 -1 -1 -1
8 6 5 6 6 5 4 4 4 4 3 3 3 2 2 1 2 0 0 -0 -0 -0 -0 -1 -0 -1 -1 -1 -1 -1 -1 -1
7 5 6 6 6 6 5 4 5 4 4 4 3 2 1 1 1 2 2 0 0 0 -0 0 0 1 1 1 0 -0 -1 -2
6 6 6 6 7 6 5 5 5 4 4 4 3 3 2 1 1 1 1 2 -0 0 -0 0 0 0 0 0 -0 -0 -1 -1
8 6 6 6 8 7 6 5 5 4 4 3 3 3 3 2 2 1 1 1 -0 -0 -0 -0 -0 -0 -0 -0 -0 0 0 -0
8 8 10 6 11 8 7 7 6 5 4 4 3 3 2 2 2 1 1 0 0 -0 -0 -0 -0 0 1 1 2 1 0 -0